GW1125 Weather Reports


time (UTC)temp
C
wind
direction
speed
KPH
gust
KPH
rain 1hr
cm
rain 24hr
cm
rain mn
cm
humidity
%
barometer
mb
20260506014217 16 77 1.6 3.2 0.00 0.00 0.00 74 1013.8
20260506013617 17 88 1.6 4.8 0.00 0.00 0.00 73 1013.7
20260506013137 17 80 1.6 3.2 0.00 0.00 0.00 73 1013.7
20260506012618 17 77 3.2 4.8 0.00 0.00 0.00 73 1013.7
20260506012137 17 311 0.0 4.8 0.00 0.00 0.00 72 1013.8
20260506011617 17 110 1.6 3.2 0.00 0.00 0.00 71 1013.7
20260506011117 18 283 3.2 4.8 0.00 0.00 0.00 69 1013.8
20260506010617 17 74 1.6 3.2 0.00 0.00 0.00 71 1013.9
20260506010157 17 0.0 0.0 0.00 0.00 0.00 72 1013.9
20260506005617 18 49 3.2 4.8 0.00 0.00 0.00 71 1013.8
20260506005137 18 85 1.6 3.2 0.00 0.00 0.00 69 1013.7
20260506004617 17 80 1.6 6.4 0.00 0.00 0.00 70 1013.8
20260506004117 18 62 1.6 4.8 0.00 0.00 0.00 69 1014.0
20260506003618 18 64 1.6 4.8 0.00 0.00 0.00 69 1013.8
20260506003118 18 114 0.0 1.6 0.00 0.00 0.00 69 1013.9
20260506002617 18 62 1.6 3.2 0.00 0.00 0.00 67 1013.9
20260506002117 18 136 1.6 3.2 0.00 0.00 0.00 68 1013.9
20260506001637 18 103 0.0 1.6 0.00 0.00 0.00 71 1013.9
20260506001117 17 88 0.0 1.6 0.00 0.00 0.00 72 1013.9
20260506000617 17 48 3.2 9.7 0.00 0.00 0.00 70 1014.2
20260506000117 17 59 3.2 6.4 0.00 0.00 0.00 71 1014.1
20260505235618 18 74 1.6 4.8 0.00 0.00 0.00 69 1014.2
20260505235118 18 286 0.0 1.6 0.00 0.00 0.00 69 1014.2
20260505234617 18 99 1.6 3.2 0.00 0.00 0.00 69 1014.2
20260505234117 18 86 0.0 3.2 0.00 0.00 0.00 69 1014.2
20260505233617 18 87 0.0 1.6 0.00 0.00 0.00 69 1014.4
20260505233117 18 85 1.6 4.8 0.00 0.00 0.00 69 1014.2
20260505232617 18 77 1.6 3.2 0.00 0.00 0.00 69 1014.3
20260505232117 18 51 4.8 9.7 0.00 0.00 0.00 69 1014.3
20260505231617 18 61 1.6 3.2 0.00 0.00 0.00 67 1014.3
20260505231117 18 101 0.0 1.6 0.00 0.00 0.00 66 1014.4
20260505230637 18 45 1.6 4.8 0.00 0.00 0.00 70 1014.5
20260505230117 18 0.0 0.0 0.00 0.00 0.00 69 1014.7
20260505225617 17 130 1.6 3.2 0.00 0.00 0.00 70 1014.6
20260505225117 17 85 1.6 3.2 0.00 0.00 0.00 72 1014.6
20260505224617 17 0.0 0.0 0.00 0.00 0.00 72 1014.7
20260505224117 17 0.0 0.0 0.00 0.00 0.00 74 1014.8
20260505223617 16 74 3.2 3.2 0.00 0.00 0.00 75 1014.9
20260505223117 16 43 3.2 4.8 0.00 0.00 0.00 75 1014.9
20260505222618 16 45 3.2 4.8 0.00 0.00 0.00 74 1014.9
20260505222118 16 93 0.0 3.2 0.00 0.00 0.00 74 1015.0
20260505221617 16 97 0.0 1.6 0.00 0.00 0.00 75 1015.0
20260505221117 16 0.0 0.0 0.00 0.00 0.00 77 1015.0
20260505220617 16 57 4.8 9.7 0.00 0.00 0.00 75 1015.2
20260505220137 16 94 0.0 1.6 0.00 0.00 0.00 75 1015.2
20260505215617 16 0.0 0.0 0.00 0.00 0.00 76 1015.2
20260505215117 16 0.0 0.0 0.00 0.00 0.00 76 1015.3
20260505214616 16 0.0 0.0 0.00 0.00 0.00 76 1015.3
20260505214118 16 0.0 0.0 0.00 0.00 0.00 76 1015.3
20260505213617 16 0.0 0.0 0.00 0.00 0.00 76 1015.3
20260505213118 16 105 0.0 1.6 0.00 0.00 0.00 75 1015.2
20260505212617 15 0.0 0.0 0.00 0.00 0.00 77 1015.3
20260505212117 16 0.0 0.0 0.00 0.00 0.00 77 1015.4
20260505211637 15 0.0 0.0 0.00 0.00 0.00 78 1015.4
20260505211117 15 0.0 0.0 0.00 0.00 0.00 77 1015.4
20260505210637 15 66 1.6 3.2 0.00 0.00 0.00 76 1015.4
20260505210136 16 110 0.0 1.6 0.00 0.00 0.00 76 1015.4
20260505205617 15 97 0.0 1.6 0.00 0.00 0.00 77 1015.5
20260505205117 15 0.0 0.0 0.00 0.00 0.00 78 1015.5
20260505204617 15 0.0 0.0 0.00 0.00 0.00 78 1015.6
20260505204117 15 0.0 0.0 0.00 0.00 0.00 79 1015.5
20260505203617 15 0.0 0.0 0.00 0.00 0.00 78 1015.6
20260505203137 15 0.0 0.0 0.00 0.00 0.00 79 1015.6
20260505202617 15 0.0 0.0 0.00 0.00 0.00 79 1015.6
20260505202117 15 0.0 0.0 0.00 0.00 0.00 79 1015.5
20260505201617 15 106 0.0 1.6 0.00 0.00 0.00 80 1015.3
20260505201116 15 0.0 0.0 0.00 0.00 0.00 80 1015.4
20260505200617 15 0.0 0.0 0.00 0.00 0.00 78 1015.4
20260505200118 15 125 1.6 3.2 0.00 0.00 0.00 79 1015.5
20260505195618 15 0.0 0.0 0.00 0.00 0.00 79 1015.6
20260505195117 15 161 1.6 3.2 0.00 0.00 0.00 79 1015.7
20260505194617 15 113 0.0 1.6 0.00 0.00 0.00 81 1015.5
20260505194117 15 0.0 0.0 0.00 0.00 0.00 81 1015.5
20260505193617 15 0.0 0.0 0.00 0.00 0.00 81 1015.5
20260505193117 14 103 0.0 1.6 0.00 0.00 0.00 81 1015.5
20260505192616 14 132 1.6 4.8 0.00 0.00 0.00 80 1015.5
20260505192117 15 0.0 0.0 0.00 0.00 0.00 81 1015.4
20260505191617 15 99 0.0 1.6 0.00 0.00 0.00 81 1015.5
20260505191117 14 0.0 0.0 0.00 0.00 0.00 82 1015.5
20260505190618 14 105 0.0 1.6 0.00 0.00 0.00 82 1015.6
20260505190137 14 116 0.0 1.6 0.00 0.00 0.00 82 1015.5
20260505185617 14 0.0 0.0 0.00 0.00 0.00 83 1015.6
20260505185137 13 114 0.0 1.6 0.00 0.00 0.00 83 1015.5
20260505184637 13 119 0.0 1.6 0.00 0.00 0.00 83 1015.6
20260505184117 13 0.0 0.0 0.00 0.00 0.00 83 1015.5
20260505183617 13 113 0.0 1.6 0.00 0.00 0.00 83 1015.6
20260505183117 13 114 1.6 3.2 0.00 0.00 0.00 83 1015.5
20260505182618 13 0.0 0.0 0.00 0.00 0.00 83 1015.4
20260505182117 13 0.0 0.0 0.00 0.00 0.00 84 1015.5
20260505181637 13 0.0 0.0 0.00 0.00 0.00 84 1015.4
20260505181117 13 0.0 0.0 0.00 0.00 0.00 84 1015.5
20260505180617 13 0.0 0.0 0.00 0.00 0.00 83 1015.5
20260505180117 13 0.0 0.0 0.00 0.00 0.00 84 1015.6
20260505175617 13 0.0 0.0 0.00 0.00 0.00 84 1015.4
20260505175118 13 0.0 0.0 0.00 0.00 0.00 84 1015.4
20260505174637 13 0.0 0.0 0.00 0.00 0.00 84 1015.5
20260505174137 13 0.0 0.0 0.00 0.00 0.00 85 1015.5
20260505173617 13 0.0 0.0 0.00 0.00 0.00 84 1015.4
20260505173117 13 0.0 0.0 0.00 0.00 0.00 84 1015.3
20260505172617 13 0.0 0.0 0.00 0.00 0.00 84 1015.5
20260505172117 13 0.0 0.0 0.00 0.00 0.00 85 1015.3
20260505171617 13 0.0 0.0 0.00 0.00 0.00 84 1015.4
20260505171136 13 0.0 0.0 0.00 0.00 0.00 84 1015.4
20260505170618 13 108 1.6 3.2 0.00 0.00 0.00 85 1015.3
20260505170118 13 109 0.0 1.6 0.00 0.00 0.00 85 1015.2
20260505165618 13 0.0 0.0 0.00 0.00 0.00 85 1015.3
20260505165117 13 0.0 0.0 0.00 0.00 0.00 85 1015.2
20260505164657 13 109 0.0 1.6 0.00 0.00 0.00 85 1015.2
20260505164117 13 0.0 0.0 0.00 0.00 0.00 86 1015.3
20260505163617 13 104 0.0 1.6 0.00 0.00 0.00 86 1015.3
20260505163117 13 0.0 0.0 0.00 0.00 0.00 86 1015.1
20260505162617 13 112 0.0 3.2 0.00 0.00 0.00 86 1015.2
20260505162116 12 0.0 0.0 0.00 0.00 0.00 86 1015.1
20260505161638 12 0.0 0.0 0.00 0.00 0.00 86 1015.1
20260505161118 12 0.0 0.0 0.00 0.00 0.00 86 1015.1
20260505160637 12 130 1.6 3.2 0.00 0.00 0.00 86 1015.2
20260505160117 12 121 0.0 1.6 0.00 0.00 0.00 87 1015.1
20260505153117 12 0.0 0.0 0.00 0.00 0.00 88 1015.0
20260505152617 12 145 3.2 4.8 0.00 0.00 0.00 87 1015.0
20260505152117 12 0.0 0.0 0.00 0.00 0.00 88 1015.3
20260505151617 12 0.0 0.0 0.00 0.00 0.00 87 1015.0
20260505151157 12 0.0 0.0 0.00 0.00 0.00 88 1015.0
20260505150617 12 179 0.0 4.8 0.00 0.00 0.00 88 1014.9
20260505150117 12 126 0.0 1.6 0.00 0.00 0.00 88 1015.0
20260505140617 12 0.0 0.0 0.00 0.00 0.00 90 1014.5
20260505140137 12 0.0 0.0 0.00 0.00 0.00 89 1014.4
20260505130117 12 152 0.0 3.2 0.00 0.00 0.00 90 1013.9
20260505124617 12 0.0 0.0 0.00 0.00 0.00 90 1013.8
20260505124117 12 114 0.0 1.6 0.00 0.00 0.00 90 1013.8
20260505123617 12 0.0 0.0 0.00 0.00 0.00 90 1013.8
20260505123117 12 0.0 0.0 0.00 0.00 0.00 90 1013.8
20260505122617 12 0.0 0.0 0.00 0.00 0.00 90 1013.8
20260505122117 12 0.0 0.0 0.00 0.00 0.00 90 1013.7
20260505121617 12 0.0 0.0 0.00 0.00 0.00 91 1013.7
20260505121137 12 0.0 0.0 0.00 0.00 0.00 91 1013.6
20260505120617 12 0.0 0.0 0.00 0.00 0.00 91 1013.7
20260505120117 12 0.0 0.0 0.00 0.00 0.00 91 1013.6
20260505115617 12 0.0 0.0 0.00 0.00 0.00 91 1013.5
20260505115117 12 0.0 0.0 0.00 0.00 0.00 90 1013.6
20260505114617 12 0.0 0.0 0.00 0.00 0.00 90 1013.5
20260505114117 12 0.0 0.0 0.00 0.00 0.00 91 1013.7
20260505113618 12 0.0 0.0 0.00 0.00 0.00 90 1013.6
20260505113117 12 97 0.0 1.6 0.00 0.00 0.00 90 1013.5
20260505112617 12 0.0 0.0 0.00 0.00 0.00 91 1013.6
20260505112117 12 0.0 0.0 0.00 0.00 0.00 91 1013.6
20260505111617 12 112 0.0 1.6 0.00 0.00 0.00 91 1013.6
20260505111117 12 0.0 0.0 0.00 0.00 0.00 91 1013.4
20260505110617 12 0.0 0.0 0.00 0.00 0.00 91 1013.4
20260505110118 12 0.0 0.0 0.00 0.00 0.00 91 1013.5
20260505102116 12 0.0 0.0 0.00 0.00 0.00 91 1013.2
20260505101618 12 108 0.0 1.6 0.00 0.00 0.00 91 1013.2
20260505101137 12 0.0 0.0 0.00 0.00 0.00 91 1013.0
20260505100617 12 0.0 0.0 0.00 0.00 0.00 91 1013.2
20260505100117 12 108 0.0 1.6 0.00 0.00 0.00 91 1013.1
20260505095617 12 0.0 0.0 0.00 0.00 0.00 92 1013.0
20260505095157 12 0.0 0.0 0.00 0.00 0.00 92 1012.9
20260505094617 12 117 1.6 3.2 0.00 0.00 0.00 92 1012.9
20260505094117 12 0.0 0.0 0.00 0.00 0.00 93 1012.9
20260505093617 11 0.0 0.0 0.00 0.00 0.00 93 1012.8
20260505093137 11 0.0 0.0 0.00 0.00 0.00 93 1012.8
20260505092618 11 0.0 0.0 0.00 0.00 0.00 94 1012.7
20260505092117 11 0.0 0.0 0.00 0.00 0.00 94 1012.9
20260505091617 11 0.0 0.0 0.00 0.00 0.00 94 1012.9
20260505091117 11 0.0 0.0 0.00 0.00 0.00 94 1012.7
20260505090617 11 0.0 0.0 0.00 0.00 0.00 94 1012.7
20260505090117 11 0.0 0.0 0.00 0.00 0.00 94 1012.7
20260505085617 11 0.0 0.0 0.00 0.00 0.00 94 1012.6
20260505085117 11 0.0 0.0 0.00 0.00 0.00 94 1012.6
20260505084638 11 0.0 0.0 0.00 0.00 0.00 94 1012.6
20260505084117 11 0.0 0.0 0.00 0.00 0.00 94 1012.7
20260505083617 11 0.0 0.0 0.00 0.00 0.00 94 1012.6
20260505083117 11 0.0 0.0 0.00 0.00 0.00 94 1012.5
20260505082617 11 0.0 0.0 0.00 0.00 0.00 94 1012.7
20260505082117 11 0.0 0.0 0.00 0.00 0.00 94 1012.6
20260505081617 11 0.0 0.0 0.00 0.00 0.00 93 1012.6
20260505081117 11 0.0 0.0 0.00 0.00 0.00 93 1012.5
20260505080617 11 0.0 0.0 0.00 0.00 0.00 94 1012.6
20260505080118 11 0.0 0.0 0.00 0.00 0.00 94 1012.5
20260505075617 11 0.0 0.0 0.00 0.00 0.00 93 1012.6
20260505075117 11 0.0 0.0 0.00 0.00 0.00 93 1012.5
20260505074617 11 0.0 0.0 0.00 0.00 0.00 93 1012.5
20260505074117 11 0.0 0.0 0.00 0.00 0.00 92 1012.4
20260505073617 11 0.0 0.0 0.00 0.00 0.00 92 1012.2
20260505073117 11 0.0 0.0 0.00 0.00 0.00 92 1012.1
20260505072617 11 0.0 0.0 0.00 0.00 0.00 92 1012.0
20260505072117 11 0.0 0.0 0.00 0.00 0.00 92 1012.1
20260505071637 11 0.0 0.0 0.00 0.00 0.00 91 1012.1
20260505071117 12 0.0 0.0 0.00 0.00 0.00 91 1012.1
20260505070617 12 0.0 0.0 0.00 0.00 0.00 91 1011.9
20260505070117 12 0.0 0.0 0.00 0.00 0.00 91 1011.9
20260505065657 12 0.0 0.0 0.00 0.00 0.00 90 1011.9
20260505065117 12 0.0 0.0 0.00 0.00 0.00 90 1011.7
20260505064617 12 0.0 0.0 0.00 0.00 0.00 89 1011.8
20260505064117 12 0.0 0.0 0.00 0.00 0.00 89 1011.6
20260505063616 12 0.0 0.0 0.00 0.00 0.00 88 1011.5
20260505063117 12 0.0 0.0 0.00 0.00 0.00 88 1011.6
20260505062618 12 0.0 0.0 0.00 0.00 0.00 88 1011.5
20260505062117 12 0.0 0.0 0.00 0.00 0.00 87 1011.4
20260505061617 12 0.0 0.0 0.00 0.00 0.00 87 1011.4
20260505061137 13 0.0 0.0 0.00 0.00 0.00 87 1011.4
20260505060617 13 0.0 0.0 0.00 0.00 0.00 86 1011.3
20260505060117 13 0.0 0.0 0.00 0.00 0.00 86 1011.3
20260505055637 13 0.0 0.0 0.00 0.00 0.00 85 1011.1
20260505055117 13 0.0 0.0 0.00 0.00 0.00 84 1011.1
20260505054618 13 0.0 0.0 0.00 0.00 0.00 84 1011.1
20260505054117 13 0.0 0.0 0.00 0.00 0.00 83 1011.0
20260505053617 13 0.0 0.0 0.00 0.00 0.00 83 1011.0
20260505053118 14 0.0 0.0 0.00 0.00 0.00 82 1010.9
20260505052617 14 134 1.6 3.2 0.00 0.00 0.00 82 1011.0
20260505052117 14 0.0 0.0 0.00 0.00 0.00 82 1010.7
20260505051637 14 0.0 0.0 0.00 0.00 0.00 82 1010.8
20260505051117 14 0.0 0.0 0.00 0.00 0.00 82 1010.6
20260505050637 14 0.0 0.0 0.00 0.00 0.00 81 1010.5
20260505050118 15 0.0 0.0 0.00 0.00 0.00 80 1010.5
20260505041637 16 0.0 0.0 0.00 0.00 0.00 74 1010.0
20260505041118 16 0.0 0.0 0.00 0.00 0.00 74 1009.7
20260505040617 16 0.0 0.0 0.00 0.00 0.00 73 1009.6
20260505040117 16 0.0 0.0 0.00 0.00 0.00 72 1009.5
20260505035617 17 0.0 0.0 0.00 0.00 0.00 72 1009.5
20260505035117 17 0.0 0.0 0.00 0.00 0.00 71 1009.4
20260505034617 17 83 0.0 1.6 0.00 0.00 0.00 70 1009.5
20260505034117 17 104 0.0 1.6 0.00 0.00 0.00 70 1009.3
20260505033637 17 0.0 0.0 0.00 0.00 0.00 70 1009.2
20260505033136 18 0.0 0.0 0.00 0.00 0.00 69 1009.1
20260505032618 18 0.0 0.0 0.00 0.00 0.00 68 1009.1
20260505032118 18 0.0 0.0 0.00 0.00 0.00 67 1009.0
20260505031618 18 0.0 0.0 0.00 0.00 0.00 65 1008.9
20260505031117 19 0.0 0.0 0.00 0.00 0.00 65 1008.9
20260505030617 19 0.0 0.0 0.00 0.00 0.00 64 1008.7
20260505030117 20 0.0 0.0 0.00 0.00 0.00 62 1008.8
20260505025617 20 77 1.6 3.2 0.00 0.00 0.00 62 1008.5
20260505025117 20 0.0 0.0 0.00 0.00 0.00 62 1008.4
20260505024617 20 112 0.0 1.6 0.00 0.00 0.00 60 1008.5
20260505024118 21 0.0 0.0 0.00 0.00 0.00 58 1008.4
20260505023617 21 0.0 0.0 0.00 0.00 0.00 59 1008.4
20260505023118 21 102 3.2 4.8 0.00 0.00 0.00 57 1008.2
20260505022617 21 32 3.2 3.2 0.00 0.00 0.00 56 1008.3
20260505022117 21 73 3.2 3.2 0.00 0.00 0.00 57 1008.2
20260505021637 22 83 0.0 1.6 0.00 0.00 0.00 56 1008.1
20260505021117 22 35 3.2 4.8 0.00 0.00 0.00 56 1008.1
20260505020617 22 107 0.0 1.6 0.00 0.00 0.00 56 1008.0
20260505020117 22 79 3.2 4.8 0.00 0.00 0.00 55 1008.2
20260505015617 23 86 1.6 6.4 0.00 0.00 0.00 55 1008.0
20260505015117 23 62 0.0 1.6 0.00 0.00 0.00 54 1008.0
20260505014638 23 115 1.6 3.2 0.00 0.00 0.00 53 1008.0